www.pogodaiklimat.ru
ПОГОДА в Санта-Ане

Архив погоды в Санта-Ане (Боливия)

Время
(UTC), дата
12 7.08
15 7.08
18 7.08
21 7.08
12 8.08
15 8.08
18 8.08
21 8.08
12 9.08
15 9.08
21 9.08
12 10.08
15 10.08
18 10.08
21 10.08
12 11.08
15 11.08
18 11.08
21 11.08
12 12.08
15 12.08
18 12.08
21 12.08
12 13.08
15 13.08
18 13.08
Ветер
(напр.,м/с)
Видим. Явления Облачность Т
(С)
Тd
(С)
f
(%)
Тe
(С)
Тes
(С)
Комфортность P
(гПа)
Po
(гПа)
Тmin
(С)
Tmax
(С)
R
(мм)
R24
(мм)
S
(см)
штиль 0 5000 м дым 6/0 2000 м
[Ac trans]
+20.0 +19.3 96 +23 +25 комфорт 1011.1 994.4 +18.5 +28.3 1 1.0
СЗ 3 7000 м дым 6/0 2000 м
[Ac trans Ci fib]
+26.0 +21.0 74 +33 +43 очень
душно
1011.9 995.2
СЗ 5 7000 м дым 6/3 600 м
[Cu med, cong Ci fib]
+31.7 +21.5 55 +40 +44 очень
душно
1009.9 993.4
СЗ 5 7000 м дым 8/5 600 м
[Cu med, cong Ci fib]
+31.7 +21.4 54 +39 +40 очень
душно
1008.6 992.1 +33.3
штиль 0 5000 м дым 8/0 2000 м
[Ac trans Ci fib]
+22.4 +22.1 98 +30 +32 очень
душно
1011.7 995.0 +21.1 +33.3
СЗ 3 7000 м дым 8/1 600 м
[Cu hum Ac trans]
+29.2 +23.4 71 +40 +46 очень
душно
1013.1 996.5
СЗ 3 7000 м дым 9/6 600 м
[Cb cap Ac trans]
+31.3 +22.3 59 +40 +43 очень
душно
1010.4 993.9
СЗ 2 7000 м дым 8/4 600 м
[Cu med, cong Ci sp]
+31.8 +22.1 57 +41 +42 опасность
перегрева
1008.3 991.8 +32.7
ЮВ 9 7000 м дым 10/5 450 м
[Cb cap As op]
+21.0 +17.0 78 +24 +24 комфорт 1016.0 999.0 +19.3 +32.7
ЮВ 9 7000 м дым 9/6 600 м
[Sc Ac und]
+21.4 +15.3 68 +25 +25 комфорт 1018.3 1001.4
ЮВ 8 7000 м осадки на расстоянии туман 10/6 240 м
[Cb cap As op]
+16.8 +15.5 92 +15 +15 1017.1 1000.2 +22.9
ЮВ 5 8000 м дым 4/0 2000 м
[Ac trans]
+16.2 +11.9 76 +15 +16 1021.0 1004.0 +13.5 +22.9 3 2.6
ЮВ 6 8000 м дым 3/0 2000 м
[Ac trans]
+21.0 +7.3 41 +22 +27 комфорт 1021.3 1004.4
ЮВ 7 15 км дым ясно +23.9 +8.2 37 +24 +28 комфорт 1018.8 1002.0
Ю 4 10 км дым ясно +24.9 +9.9 39 +26 +27 жарко 1017.1 1000.4 +26.3
ЮВ 3 10 км дым ясно +13.7 +12.0 89 +13 +15 1017.0 1000.0 +10.7 +26.3
ЮВ 4 10 км дым ясно +23.4 +12.3 50 +26 +36 жарко 1017.5 1000.7
штиль 0 10 км дым ясно +27.5 +8.9 31 +28 +47 жарко 1015.1 998.4
штиль 0 10 км дым ясно +29.0 +10.7 32 +29 +32 жарко 1012.8 996.2 +30.5
штиль 0 8000 м дым ясно +16.6 +14.5 87 +16 +20 1015.0 998.0 +13.5 +30.5
СЗ 2 8000 м дым ясно +27.6 +13.4 42 +29 +44 жарко 1015.6 999.0
СЗ 4 10 км дым ясно +31.6 +15.6 38 +34 +43 душно 1013.4 996.8
СЗ 3 10 км дым ясно +32.3 +17.7 42 +36 +38 очень
душно
1011.5 995.0 +33.6
штиль 0 10 км дым ясно +21.8 +19.4 86 +27 +30 душно 1013.1 996.2 +19.0 +33.6
СЗ 4 10 км дым 6/1 600 м
[Cu hum Ci fib]
+31.0 +19.5 50 +37 +45 очень
душно
1014.4 997.8
СЗ 6 10 км дым 5/5 600 м
[Cu med, cong]
+33.2 +18.5 42 +38 +41 очень
душно
1013.3 996.7
Местоположение метеостанции Санта-Ана (Боливия): широта -13.76 долгота -65.43 высота над уровнем моря 144 м.
В архиве по умолчанию представлена погода в Санта-Ане за последнюю неделю. Архивные данные за месяц целиком и за предыдущие месяцы, начиная с января 2011 года, Вы можете получить, выбрав интересующий диапазон дат из раскрывающегося списка и нажав кнопку "Найти!".
*Определитесь, кто Вы:
Внимание! Время в таблицах - всемирное. Для получения местного времени необходимо прибавить поправку, которая равна -4 ч.
Смотрите также архив погоды в соседних городах и на ближайших метеорологических станциях:
Партнеры нашего сайта:      
Пояснения к столбцам:
  • Ветер - указаны скорость ветра в м/с - средняя за 10 мин, порывы в срок и между сроками (в фигурных скобках) и направление, откуда дует ветер: С - северный,
  • СВ - северо-восточный, В - восточный, ЮВ - юго-восточный, Ю - южный, ЮЗ - юго-западный, З - западный, СЗ - северо-западный.
  • Видимость - горизонтальная дальность видимости в метрах или километрах. При видимости от 1 до 10 км при отсутствии осадков обычно наблюдается дымка, при ухудшении видимости до 1 км и менее - туман. В сухую погоду видимость может ухудшаться дымом, пылью или мглою.
  • Явления - указаны атмосферные явления, наблюдавшиеся в срок или в последний час перед сроком; фигурными скобками обозначены явления, наблюдавшиеся между сроками (за 1-3 часа до срока); квадратными скобками обозначены град или гололедные отложения с указанием их диаметра в мм.
  • Облачность - указаны через наклонную черту общая и нижняя облачность в баллах и высота нижней границы облаков в метрах; квадратными скобками обозначены формы облаков: Ci - перистые, Cs - перисто-слоистые, Cc - перисто-кучевые, Ac - высококучевые, As - высокослоистые, Sc - слоисто-кучевые, Ns - слоисто-дождевые, Cu - кучевые, Cb - кучево-дождевые. Подробнее классификацию облаков см. в Атласе облаков (PDF).
  • T - Температура воздуха - температура, измеренная на высоте 2 м над землей.
  • Td - Температура точки росы - температура, при понижении до которой содержащийся в воздухе водяной пар достигнет насыщения.
  • f - Относительная влажность воздуха - влажноcть воздуха, измеренная на высоте 2 м над землей.
  • Te - Эффективная температура - температура, которую ощущает одетый по сезону человек в тени. Характеристика душности погоды. При расчете учитывается влияние влажности воздуха и скорости ветра на теплоощущения человека.
  • Tes - Эффективная температура на солнце - температура, которую ощущает человек, с поправкой на солнечный нагрев. Характеристика знойности погоды. Зависит от высоты солнца над горизонтом, облачности и скорости ветра. Ночью, в пасмурную погоду, а также при ветре 12 м/с и более поправка равна нулю.
  • P - Атмосферное давление - приведенное к уровню моря атмосферное давление.
  • Po - Атмосферное давление - измеренное на уровне метеостанции атмосферное давление.
  • Tmin - Минимальная температура - минимум температуры воздуха на высоте 2 м над землей.
  • Tmax - Максимальная температура - максимум температуры воздуха на высоте 2 м над землей.
  • R - Количество осадков - Количество выпавших осадков за период времени, мм. При наведении курсора мыши на число - период времени, за который выпало указанное количество осадков.
  • R24 - Количество осадков - Количество выпавших осадков за 24 часа, мм.
  • S - Снежный покров - Высота снежного покрова, см. При наведении курсора мыши на число - состояние снежного покрова и степень покрытия местности в баллах.